User: anonymous   Login
Location: Pitton
(51.0667°N, 1.7000°W)
Time: 22:45:12
(UTC+00:00)
Language:

Cosmos 1023 Rocket - Orbit

View from above orbital plane
View from above orbital plane
View from above satellite
View from above satellite

Ground track
Ground track

The orbit data is extracted from the following two-line orbital elements,

1 10962U 78063B   19317.53051575  .00000036  00000-0  19046-4 0  9997
2 10962  74.0820  35.4815 0024075  70.4436 289.9317 14.41173578172548
Epoch (UTC): 13 November 2019 12:43:56
Eccentricity: 0.0024075
inclination: 74.0820°
perigee height: 737 km
apogee height: 772 km
right ascension of ascending node: 35.4815°
argument of perigee: 70.4436°
revolutions per day: 14.41173578
mean anomaly at epoch: 289.9317°
orbit number at epoch: 17254

The dashed part of the orbit path shows where the satellite is in the earth's shadow,  

DLR